Date String (YYYY-MM-DD hh:mm:ss) UTC,Instrument flags,absolute air pressure of the measurement (hPa),sample flow rate (lpm),inlet stack bypass flow (lpm),air temperature of the measurement (°C),ambient temperature measured by the external sensor (°C),aerosol sample conditioner tube jacket temperature (°C),OPC LED temperature (°C),internal box temperature (°C),relative humidity of the measurement (%),span deviation,mass concentration of particles derived from Lorenz-Mie calculation of OPC scattering (μg/m³),mass concentration of particles derived from Lorenz-Mie calculation of OPC scattering (μg/m³),mass concentration of particles derived from Lorenz-Mie calculation of OPC scattering (μg/m³)
DateTimeUTC,F1_M11,P_M11,Q1_M11,Q2_M11,T1_M11,T2_M11,T3_M11,T4_M11,T5_M11,U1_M11,ZSPAN_M11,X2_M11,X0_M11,X1_M11
2024-01-23 18:00:00,SystemResetWarning,0826.3,4.99,000.00,023.5,022.8,000.0,031.6,025.0,17.2,0002.5,0010.21,0014.35,0009.95
2024-01-23 18:01:00,SystemResetWarning,0826.3,4.99,000.00,023.5,022.9,000.0,031.7,025.0,17.1,0002.3,0010.19,0014.27,0009.93
2024-01-23 18:02:00,SystemResetWarning,0826.3,5.00,000.00,023.5,022.9,000.0,031.7,025.0,17.1,0002.3,0010.20,0014.24,0009.91
2024-01-23 18:03:00,SystemResetWarning,0826.3,5.00,000.00,023.5,022.9,000.0,031.7,025.0,17.0,0002.2,0010.18,0014.27,0009.89
2024-01-23 18:04:00,SystemResetWarning,0826.2,5.01,000.00,023.5,022.9,000.0,031.7,025.1,16.9,0002.3,0010.15,0014.83,0009.87
2024-01-23 18:05:00,SystemResetWarning,0826.2,5.01,000.00,023.5,022.9,000.0,031.7,025.0,16.9,0002.3,0010.14,0014.82,0009.84
2024-01-23 18:06:00,SystemResetWarning,0826.2,5.00,000.00,023.6,022.9,000.0,031.7,025.0,16.7,0002.1,0010.14,0015.12,0009.82
2024-01-23 18:07:00,SystemResetWarning,0826.2,5.00,000.00,023.6,022.9,000.0,031.8,025.1,16.6,0002.3,0010.19,0015.18,0009.81
2024-01-23 18:08:00,SystemResetWarning,0826.2,5.00,000.00,023.6,023.0,000.0,031.8,025.1,16.8,0002.3,0010.19,0014.58,0009.81
2024-01-23 18:09:00,SystemResetWarning,0826.2,5.00,000.00,023.6,023.0,000.0,031.8,025.1,16.6,0002.2,0010.17,0014.58,0009.80
2024-01-23 18:10:00,SystemResetWarning,0826.2,5.00,000.00,023.6,023.0,000.0,031.8,025.2,16.7,0002.2,0010.20,0014.58,0009.82
2024-01-23 18:11:00,SystemResetWarning,0826.2,5.00,000.00,023.7,023.0,000.0,031.8,025.2,16.9,0001.9,0010.26,0015.01,0009.86
2024-01-23 18:12:00,SystemResetWarning,0826.2,5.00,000.00,023.7,023.0,000.0,031.8,025.2,17.1,0002.0,0010.36,0015.37,0009.93
2024-01-23 18:13:00,SystemResetWarning,0826.2,5.00,000.00,023.7,023.1,000.0,031.8,025.2,17.2,0002.1,0010.45,0015.52,0010.02
2024-01-23 18:14:00,SystemResetWarning,0826.2,5.01,000.00,023.7,023.1,000.0,031.9,025.2,17.1,0002.2,0010.55,0015.70,0010.12
2024-01-23 18:15:00,SystemResetWarning,0826.1,5.00,000.00,023.7,023.1,000.0,031.9,025.2,17.1,0002.2,0010.61,0015.55,0010.18
2024-01-23 18:16:00,SystemResetWarning,0826.1,5.01,000.00,023.7,023.1,000.0,031.9,025.2,17.1,0001.9,0010.67,0015.55,0010.24
2024-01-23 18:17:00,SystemResetWarning,0826.1,4.99,000.00,023.7,023.1,000.0,031.9,025.3,17.0,0001.8,0010.74,0015.41,0010.32
2024-01-23 18:18:00,SystemResetWarning,0826.1,5.00,000.00,023.8,023.1,000.0,031.9,025.3,16.8,0001.9,0010.76,0015.15,0010.36
2024-01-23 18:19:00,SystemResetWarning,0826.1,5.00,000.00,023.8,023.2,000.0,031.9,025.3,16.9,0001.9,0010.78,0015.27,0010.40
2024-01-23 18:20:00,SystemResetWarning,0826.1,5.00,000.00,023.8,023.2,000.0,032.0,025.3,16.9,0001.9,0010.82,0015.46,0010.44
2024-01-23 18:21:00,SystemResetWarning,0826.1,5.00,000.00,023.8,023.2,000.0,032.0,025.4,16.6,0001.9,0010.83,0015.48,0010.46
2024-01-23 18:22:00,SystemResetWarning,0826.0,4.99,000.00,023.8,023.2,000.0,032.0,025.4,16.6,0001.7,0010.82,0015.36,0010.45
2024-01-23 18:23:00,SystemResetWarning,0826.0,4.99,000.00,023.8,023.2,000.0,032.0,025.4,16.5,0001.7,0010.78,0014.96,0010.41
2024-01-23 18:24:00,SystemResetWarning,0826.0,5.00,000.00,023.9,023.2,000.0,032.0,025.4,16.4,0001.5,0010.71,0014.79,0010.34
2024-01-23 18:25:00,SystemResetWarning,0826.0,5.00,000.00,023.9,023.3,000.0,032.0,025.4,16.4,0001.4,0010.62,0014.64,0010.25
2024-01-23 18:26:00,SystemResetWarning,0826.0,5.00,000.00,023.9,023.3,000.0,032.1,025.4,16.4,0001.6,0010.55,0014.34,0010.17
2024-01-23 18:27:00,SystemResetWarning,0825.9,5.01,000.00,023.9,023.3,000.0,032.1,025.5,16.4,0001.7,0010.50,0014.11,0010.12
2024-01-23 18:28:00,SystemResetWarning,0825.9,5.00,000.00,023.9,023.3,000.0,032.1,025.4,16.3,0001.8,0010.43,0014.03,0010.04
2024-01-23 18:29:00,SystemResetWarning,0825.9,5.01,000.00,024.0,023.3,000.0,032.1,025.5,16.3,0002.0,0010.38,0014.01,0009.97
2024-01-23 18:30:00,SystemResetWarning,0825.9,5.00,000.00,024.0,023.3,000.0,032.1,025.5,16.3,0002.1,0010.27,0013.78,0009.87
2024-01-23 18:31:00,SystemResetWarning,0825.9,5.00,000.00,024.0,023.4,000.0,032.1,025.5,16.3,0002.1,0010.20,0013.66,0009.80
2024-01-23 18:32:00,SystemResetWarning,0825.9,5.00,000.00,024.0,023.4,000.0,032.2,025.5,16.3,0002.2,0010.15,0014.52,0009.72
2024-01-23 18:33:00,SystemResetWarning,0825.9,5.00,000.00,024.0,023.4,000.0,032.2,025.5,16.3,0002.4,0010.10,0014.60,0009.66
2024-01-23 18:34:00,SystemResetWarning,0825.9,5.00,000.00,024.0,023.4,000.0,032.2,025.5,16.3,0002.4,0010.05,0014.61,0009.63
2024-01-23 18:35:00,SystemResetWarning,0825.9,5.00,000.00,024.0,023.4,000.0,032.2,025.5,16.3,0002.6,0010.00,0014.50,0009.60
2024-01-23 18:36:00,SystemResetWarning,0825.9,5.00,000.00,024.1,023.4,000.0,032.2,025.5,16.1,0002.6,0009.98,0014.56,0009.60
2024-01-23 18:37:00,SystemResetWarning,0825.9,5.00,000.00,024.1,023.4,000.0,032.2,025.5,16.2,0002.4,0009.97,0014.74,0009.60
2024-01-23 18:38:00,SystemResetWarning,0825.9,5.00,000.00,024.1,023.5,000.0,032.3,025.5,16.0,0002.3,0010.00,0014.79,0009.60
2024-01-23 18:39:00,SystemResetWarning,0825.9,5.00,000.00,024.1,023.5,000.0,032.3,025.6,16.1,0002.6,0010.00,0014.79,0009.60
2024-01-23 18:40:00,SystemResetWarning,0825.9,5.00,000.00,024.1,023.5,000.0,032.3,025.6,16.0,0002.4,0009.97,0014.69,0009.61
2024-01-23 18:41:00,SystemResetWarning,0825.8,5.00,000.00,024.1,023.5,000.0,032.3,025.6,16.1,0002.4,0009.99,0014.74,0009.62
2024-01-23 18:42:00,SystemResetWarning,0825.8,4.99,000.00,024.1,023.5,000.0,032.3,025.6,16.0,0002.3,0010.03,0014.86,0009.63
2024-01-23 18:43:00,SystemResetWarning,0825.8,4.99,000.00,024.1,023.5,000.0,032.3,025.6,16.0,0002.0,0010.04,0014.07,0009.64
2024-01-23 18:44:00,SystemResetWarning,0825.7,5.01,000.00,024.2,023.5,000.0,032.3,025.7,16.2,0002.0,0010.05,0013.84,0009.63
2024-01-23 18:45:00,SystemResetWarning,0825.7,5.01,000.00,024.2,023.5,000.0,032.4,025.7,16.1,0002.0,0010.02,0013.69,0009.60
2024-01-23 18:46:00,SystemResetWarning,0825.7,5.00,000.00,024.2,023.6,000.0,032.4,025.7,16.2,0002.0,0009.99,0013.81,0009.55
2024-01-23 18:47:00,SystemResetWarning,0825.7,5.00,000.00,024.2,023.6,000.0,032.4,025.7,16.1,0001.9,0009.94,0013.79,0009.50
2024-01-23 18:48:00,SystemResetWarning,0825.6,5.00,000.00,024.2,023.6,000.0,032.4,025.7,16.1,0002.1,0009.92,0013.51,0009.45
2024-01-23 18:49:00,SystemResetWarning,0825.6,5.00,000.00,024.2,023.6,000.0,032.4,025.7,16.0,0002.0,0009.84,0013.39,0009.39
2024-01-23 18:50:00,SystemResetWarning,0825.6,5.00,000.00,024.2,023.6,000.0,032.4,025.7,16.0,0001.7,0009.77,0013.32,0009.33
2024-01-23 18:51:00,SystemResetWarning,0825.6,5.00,000.00,024.3,023.6,000.0,032.5,025.8,15.9,0001.8,0009.75,0013.36,0009.29
2024-01-23 18:52:00,SystemResetWarning,0825.6,5.00,000.00,024.3,023.6,000.0,032.5,025.8,15.9,0002.0,0009.71,0013.29,0009.26
2024-01-23 18:53:00,SystemResetWarning,0825.6,5.00,000.00,024.3,023.7,000.0,032.5,025.9,15.7,0002.1,0009.66,0013.21,0009.24
2024-01-23 18:54:00,SystemResetWarning,0825.6,5.00,000.00,024.3,023.7,000.0,032.5,025.9,15.7,0002.6,0009.63,0013.62,0009.23
2024-01-23 18:55:00,SystemResetWarning,0825.5,5.00,000.00,024.3,023.7,000.0,032.5,025.9,15.6,0002.8,0009.63,0013.60,0009.25
2024-01-23 18:56:00,SystemResetWarning,0825.5,5.00,000.00,024.4,023.7,000.0,032.5,025.9,15.8,0002.8,0009.72,0013.74,0009.30
2024-01-23 18:57:00,SystemResetWarning,0825.5,5.01,000.00,024.4,023.8,000.0,032.5,025.9,15.9,0002.6,0009.75,0013.68,0009.33
2024-01-23 18:58:00,SystemResetWarning,0825.4,5.00,000.00,024.4,023.8,000.0,032.6,025.9,15.9,0002.6,0009.82,0013.78,0009.39
2024-01-23 18:59:00,SystemResetWarning,0825.4,5.00,000.00,024.4,023.8,000.0,032.6,026.0,15.8,0002.5,0009.88,0013.83,0009.44
